TimeEDT,TemperatureF,Dew PointF,Humidity,Sea Level PressureIn,VisibilityMPH,Wind Direction,Wind SpeedMPH,Gust SpeedMPH,PrecipitationIn,Events,Conditions,WindDirDegrees,DateUTC
12:53 AM,73.0,69.1,87,29.94,10.0,Calm,Calm,-,N/A,,Mostly Cloudy,0,2013-08-31 04:53:00
1:53 AM,73.0,68.0,84,29.92,10.0,South,4.6,-,N/A,,Mostly Cloudy,190,2013-08-31 05:53:00
2:53 AM,71.1,68.0,90,29.92,9.0,Calm,Calm,-,N/A,,Clear,0,2013-08-31 06:53:00
3:53 AM,71.1,68.0,90,29.92,7.0,Calm,Calm,-,N/A,,Clear,0,2013-08-31 07:53:00
4:53 AM,70.0,68.0,93,29.91,5.0,Calm,Calm,-,N/A,,Clear,0,2013-08-31 08:53:00
5:53 AM,69.1,66.9,93,29.91,7.0,Calm,Calm,-,N/A,,Mostly Cloudy,0,2013-08-31 09:53:00
6:53 AM,70.0,66.9,90,29.90,8.0,Calm,Calm,-,N/A,,Overcast,0,2013-08-31 10:53:00
7:53 AM,70.0,66.9,90,29.91,7.0,Calm,Calm,-,N/A,,Clear,0,2013-08-31 11:53:00
8:53 AM,73.0,68.0,84,29.92,10.0,South,3.5,-,N/A,,Clear,190,2013-08-31 12:53:00
9:53 AM,75.9,68.0,76,29.93,10.0,Calm,Calm,-,N/A,,Clear,0,2013-08-31 13:53:00
10:53 AM,79.0,70.0,74,29.92,10.0,Variable,3.5,-,N/A,,Clear,0,2013-08-31 14:53:00
11:53 AM,82.9,71.1,67,29.92,10.0,Calm,Calm,-,N/A,,Clear,0,2013-08-31 15:53:00
12:53 PM,84.9,71.1,63,29.90,10.0,Variable,3.5,-,N/A,,Partly Cloudy,0,2013-08-31 16:53:00
1:53 PM,86.0,70.0,59,29.87,10.0,Variable,6.9,-,N/A,,Clear,0,2013-08-31 17:53:00
2:49 PM,82.4,69.8,66,29.93,10.0,Variable,3.5,-,N/A,Thunderstorm,Mostly Cloudy,0,2013-08-31 18:49:00
2:53 PM,82.9,68.0,60,29.87,10.0,Calm,Calm,-,N/A,Thunderstorm,Mostly Cloudy,0,2013-08-31 18:53:00
3:25 PM,71.6,68.0,88,29.97,1.8,NW,11.5,18.4,0.09,Rain-Thunderstorm,Heavy Thunderstorms and Rain,310,2013-08-31 19:25:00
3:38 PM,71.6,69.8,94,29.93,3.0,WNW,4.6,-,0.16,Rain-Thunderstorm,Light Thunderstorms and Rain,290,2013-08-31 19:38:00
3:53 PM,71.1,68.0,90,29.88,8.0,Variable,3.5,-,0.16,Rain-Thunderstorm,Light Thunderstorms and Rain,0,2013-08-31 19:53:00
4:35 PM,73.4,69.8,88,29.95,10.0,North,3.5,-,0.00,,Partly Cloudy,350,2013-08-31 20:35:00
4:53 PM,75.0,66.9,76,29.88,10.0,West,4.6,-,0.00,,Scattered Clouds,280,2013-08-31 20:53:00
5:53 PM,73.9,69.1,85,29.86,10.0,South,4.6,-,N/A,,Clear,190,2013-08-31 21:53:00
6:53 PM,73.9,66.9,79,29.87,10.0,SW,3.5,-,N/A,,Clear,230,2013-08-31 22:53:00
7:53 PM,73.0,68.0,84,29.87,10.0,Calm,Calm,-,N/A,,Clear,0,2013-08-31 23:53:00
8:53 PM,73.0,68.0,84,29.89,10.0,Calm,Calm,-,N/A,,Clear,0,2013-09-01 00:53:00
9:53 PM,71.1,68.0,90,29.90,10.0,Calm,Calm,-,N/A,,Clear,0,2013-09-01 01:53:00
10:53 PM,70.0,66.9,90,29.88,9.0,Calm,Calm,-,N/A,,Clear,0,2013-09-01 02:53:00
11:53 PM,69.1,66.9,93,29.88,9.0,Calm,Calm,-,N/A,,Clear,0,2013-09-01 03:53:00